Home > Weather > Missoula > Past weeks

Flag for USA Past Weather in Missoula, Montana, USA — Yesterday and Last 2 Weeks

Now
55 °F

Clear.


Feels Like: 55 °F
Forecast: 50 / 93 °F
Wind: No wind

Location: Missoula International Airport

Current Time: Aug 29, 2016 at 3:21:35 AM

Latest Report: Aug 29, 2016 at 2:53 AM


Visibility: 10 mi

Pressure: 30.15 "Hg (26.84 "Hg at 971m altitude)

Humidity: 51%

Dew Point: 37 °F

Location of MissoulaLocation

Past Weather in Missoula — Graph

°F

Missoula Temperature Yesterday

Maximum temperature yesterday: 84 °F (at 3:53 PM)
Minimum temperature yesterday: 60 °F (at 6:53 AM)
Average temperature yesterday: 72 °F

High & Low Weather Summary for the Past Weeks

 TemperatureHumidityPressure
High94 °F (Aug 16, 5:53 PM)86% (Aug 24, 6:53 AM)30.29 "Hg (Aug 24, 6:53 AM)
Low40 °F (Aug 26, 6:53 AM)9% (Aug 21, 5:53 PM)29.67 "Hg (Aug 21, 5:53 PM)
Average67 °F40%30.00 "Hg
* Reported Aug 14 1:53 AM — Aug 29 1:53 AM, Missoula, Weather by CustomWeather, © 2016

Note: Actual official high and low records may vary slightly from our data, if they occured in-between our weather recording intervals... More about our weather records

Advertising

Missoula Weather History for the Previous 24 Hours

Scroll right to see more
 ConditionsComfort  
Time TempWeatherWind HumidityBarometerVisibility
1:53 AM
Mon, Aug 29
56 °FClear.N/A49%30.14 "Hg10 mi
12:53 AM60 °FClear.No wind42%30.14 "Hg10 mi
11:53 PM
Sun, Aug 28
60 °FClear.5 mph41%30.13 "Hg10 mi
10:53 PM63 °FClear.No wind35%30.11 "Hg10 mi
9:53 PM67 °FClear.8 mph31%30.10 "Hg10 mi
8:53 PM70 °FSunny.6 mph29%30.08 "Hg6 mi
7:53 PM78 °FHaze.16 mph19%30.05 "Hg5 mi
6:53 PM82 °FSunny.14 mph15%30.02 "Hg10 mi
5:53 PM84 °FScattered clouds.10 mph13%30.00 "Hg10 mi
4:53 PM82 °FSunny.15 mph16%29.99 "Hg10 mi
3:53 PM84 °FSunny.5 mph14%29.98 "Hg10 mi
2:53 PM82 °FSunny.No wind15%29.99 "Hg10 mi
1:53 PM81 °FSunny.7 mph18%29.99 "Hg10 mi
12:53 PM75 °FSunny.9 mph27%30.00 "Hg10 mi
11:53 AM73 °FSunny.5 mph33%30.01 "Hg10 mi
10:53 AM72 °FSunny.9 mph35%30.01 "Hg10 mi
9:53 AM73 °FSunny.10 mph36%29.98 "Hg10 mi
8:53 AM70 °FSunny.12 mph41%29.97 "Hg10 mi
7:53 AM63 °FSunny.3 mph54%29.96 "Hg10 mi
6:53 AM60 °FClear.8 mph56%29.95 "Hg10 mi
5:53 AM64 °FPassing clouds.6 mph49%29.92 "Hg10 mi
4:53 AM65 °FClear.7 mph47%29.88 "Hg10 mi
3:53 AM69 °FOvercast.No wind39%29.86 "Hg10 mi
Weather by CustomWeather, © 2016

See weather overviewHow to use our weather pages